AUA701 LOWW-ELLX

Flight info

Callsign AUA701
Flight time N/A
Altitude 34000
Route MEDIX1C/29 MEDIX DCT RENKA/N0457F360 L610 STAUB/N0414F240 L610 AMOSA Z104 MISGI T894 BITBU Z110 BETEX
Aircraft A320/M-SDE3FGHIRWY/LB1

Departure

Time 2026-05-07 14:03
Airport Vienna International Airport (LOWW)

Arrival

Time N/A
Airport Luxembourg-Findel International Airport (ELLX)
Time Latitude Longitude Altitude Speed Heading
2026-05-07 13:50 48.11746 16.56682 610 ft 0 kts 25°
2026-05-07 13:54 48.11741 16.56679 610 ft 2 kts 26°
2026-05-07 13:55 48.11724 16.56666 626 ft 3 kts 30°
2026-05-07 13:55 48.11707 16.56650 626 ft 3 kts 38°
2026-05-07 13:55 48.11692 16.56630 622 ft 3 kts 53°
2026-05-07 13:55 48.11683 16.56606 619 ft 3 kts 95°
2026-05-07 13:56 48.11685 16.56592 623 ft 1 kts 116°
2026-05-07 13:56 48.11686 16.56589 623 ft 0 kts 116°
2026-05-07 13:58 48.11672 16.56632 617 ft 10 kts 116°
2026-05-07 13:58 48.11646 16.56713 619 ft 16 kts 116°
2026-05-07 13:59 48.11591 16.56881 610 ft 19 kts 115°
2026-05-07 13:59 48.11530 16.57068 620 ft 21 kts 115°
2026-05-07 13:59 48.11463 16.57273 618 ft 23 kts 116°
2026-05-07 13:59 48.11393 16.57388 618 ft 11 kts 194°
2026-05-07 14:00 48.11320 16.57336 614 ft 13 kts 205°
2026-05-07 14:00 48.11233 16.57275 622 ft 14 kts 195°
2026-05-07 14:00 48.11164 16.57411 622 ft 13 kts 116°
2026-05-07 14:00 48.11140 16.57487 617 ft 12 kts 116°
2026-05-07 14:01 48.11107 16.57588 614 ft 10 kts 115°
2026-05-07 14:01 48.11065 16.57652 610 ft 8 kts 169°
2026-05-07 14:01 48.11010 16.57623 610 ft 9 kts 205°
2026-05-07 14:01 48.10944 16.57575 615 ft 12 kts 206°
2026-05-07 14:02 48.10914 16.57531 619 ft 3 kts 284°
2026-05-07 14:02 48.10916 16.57524 616 ft 1 kts 295°
2026-05-07 14:02 48.10986 16.57318 616 ft 59 kts 296°
2026-05-07 14:02 48.11272 16.56432 617 ft 127 kts 297°
2026-05-07 14:03 48.11736 16.55010 733 ft 165 kts 294°
2026-05-07 14:03 48.12149 16.53444 1513 ft 162 kts 273°
2026-05-07 14:03 48.12047 16.51725 2084 ft 176 kts 258°
2026-05-07 14:03 48.11835 16.49801 2497 ft 199 kts 258°
2026-05-07 14:04 48.11590 16.47632 2947 ft 224 kts 257°
2026-05-07 14:04 48.11227 16.45229 3519 ft 249 kts 255°
2026-05-07 14:04 48.10784 16.42646 4399 ft 260 kts 255°
2026-05-07 14:04 48.10319 16.40008 5431 ft 264 kts 255°
2026-05-07 14:05 48.09879 16.37323 6455 ft 268 kts 262°
2026-05-07 14:05 48.09828 16.34527 7397 ft 271 kts 270°
2026-05-07 14:05 48.09869 16.31694 8364 ft 273 kts 271°
2026-05-07 14:05 48.09921 16.28834 9327 ft 277 kts 271°
2026-05-07 14:06 48.09979 16.25939 10205 ft 282 kts 271°
2026-05-07 14:06 48.10044 16.22893 10571 ft 305 kts 273°
2026-05-07 14:06 48.10385 16.19630 10850 ft 330 kts 283°
2026-05-07 14:06 48.11155 16.16299 11337 ft 344 kts 289°
2026-05-07 14:07 48.12004 16.12922 12082 ft 349 kts 289°
2026-05-07 14:07 48.12852 16.09488 12880 ft 353 kts 288°
2026-05-07 14:07 48.13701 16.06020 13649 ft 357 kts 288°
2026-05-07 14:07 48.14544 16.02557 14329 ft 360 kts 288°
2026-05-07 14:08 48.15404 15.99016 14991 ft 364 kts 287°
2026-05-07 14:08 48.16272 15.95433 15672 ft 367 kts 287°
2026-05-07 14:08 48.17146 15.91820 16340 ft 371 kts 287°
2026-05-07 14:08 48.18033 15.88163 17006 ft 375 kts 287°
2026-05-07 14:09 48.18931 15.84479 17662 ft 379 kts 287°
2026-05-07 14:09 48.19840 15.80750 18304 ft 383 kts 286°
2026-05-07 14:09 48.20756 15.76981 18878 ft 386 kts 286°
2026-05-07 14:09 48.21673 15.73175 19459 ft 390 kts 285°
2026-05-07 14:10 48.22596 15.69334 20027 ft 393 kts 285°
2026-05-07 14:10 48.23528 15.65462 20589 ft 396 kts 285°
2026-05-07 14:10 48.24468 15.61560 21155 ft 400 kts 285°
2026-05-07 14:10 48.25416 15.57612 21679 ft 403 kts 285°
2026-05-07 14:11 48.26369 15.53637 22209 ft 407 kts 285°
2026-05-07 14:11 48.27327 15.49623 22724 ft 410 kts 284°
2026-05-07 14:11 48.28291 15.45578 23215 ft 413 kts 284°
2026-05-07 14:11 48.29257 15.41488 23683 ft 415 kts 283°
2026-05-07 14:12 48.29997 15.37303 24084 ft 415 kts 278°
2026-05-07 14:12 48.30669 15.33134 24491 ft 418 kts 278°
2026-05-07 14:12 48.31354 15.28881 24923 ft 419 kts 278°
2026-05-07 14:12 48.32039 15.24620 25335 ft 421 kts 278°
2026-05-07 14:13 48.32727 15.20319 25750 ft 423 kts 278°
2026-05-07 14:13 48.33413 15.16014 26146 ft 425 kts 278°
2026-05-07 14:13 48.34100 15.11687 26534 ft 427 kts 278°
2026-05-07 14:13 48.34790 15.07336 26915 ft 428 kts 277°
2026-05-07 14:14 48.35479 15.02974 27281 ft 430 kts 277°
2026-05-07 14:14 48.36171 14.98589 27631 ft 432 kts 277°
2026-05-07 14:14 48.36864 14.94190 27974 ft 434 kts 277°
2026-05-07 14:14 48.37560 14.89768 28304 ft 435 kts 277°
2026-05-07 14:15 48.38260 14.85330 28624 ft 437 kts 277°
2026-05-07 14:15 48.38962 14.80868 28937 ft 439 kts 277°
2026-05-07 14:15 48.39659 14.76397 29218 ft 440 kts 277°
2026-05-07 14:15 48.40355 14.71903 29494 ft 441 kts 277°
2026-05-07 14:16 48.41043 14.67464 29816 ft 441 kts 277°
2026-05-07 14:16 48.41739 14.62976 30173 ft 440 kts 277°
2026-05-07 14:16 48.42430 14.58499 30498 ft 439 kts 277°
2026-05-07 14:16 48.43119 14.54028 30790 ft 438 kts 277°
2026-05-07 14:17 48.43805 14.49559 31090 ft 438 kts 277°
2026-05-07 14:17 48.44486 14.45089 31373 ft 438 kts 277°
2026-05-07 14:17 48.45165 14.40619 31674 ft 437 kts 278°
2026-05-07 14:17 48.45843 14.36153 31976 ft 437 kts 278°
2026-05-07 14:18 48.46521 14.31690 32277 ft 437 kts 278°
2026-05-07 14:18 48.47196 14.27231 32581 ft 437 kts 278°
2026-05-07 14:18 48.47868 14.22765 32879 ft 436 kts 278°
2026-05-07 14:18 48.48539 14.18312 33192 ft 436 kts 278°
2026-05-07 14:19 48.49212 14.13832 33501 ft 436 kts 278°
2026-05-07 14:19 48.49877 14.09373 33814 ft 436 kts 279°
2026-05-07 14:19 48.50538 14.04917 33977 ft 436 kts 279°
2026-05-07 14:20 48.51848 13.96049 34002 ft 436 kts 279°
2026-05-07 14:20 48.53166 13.87120 34004 ft 435 kts 279°
2026-05-07 14:21 48.54474 13.78204 34004 ft 435 kts 279°
2026-05-07 14:21 48.55785 13.69265 34007 ft 435 kts 279°
2026-05-07 14:22 48.57071 13.60394 34013 ft 435 kts 279°
2026-05-07 14:22 48.58361 13.51472 34008 ft 436 kts 281°
2026-05-07 14:23 48.60348 13.42787 34007 ft 438 kts 287°
2026-05-07 14:23 48.62438 13.34136 34008 ft 438 kts 287°
2026-05-07 14:24 48.64525 13.25472 34010 ft 438 kts 287°
2026-05-07 14:24 48.66593 13.16806 34012 ft 438 kts 287°
2026-05-07 14:25 48.68657 13.08120 34012 ft 438 kts 287°
2026-05-07 14:25 48.70708 12.99437 34012 ft 438 kts 287°
2026-05-07 14:26 48.72756 12.90749 34016 ft 438 kts 287°
2026-05-07 14:26 48.74794 12.82054 34020 ft 438 kts 287°
2026-05-07 14:27 48.76815 12.73407 34020 ft 438 kts 287°
2026-05-07 14:27 48.78840 12.64688 34018 ft 438 kts 287°
2026-05-07 14:28 48.80855 12.55963 34019 ft 438 kts 287°
2026-05-07 14:28 48.82868 12.47238 34018 ft 438 kts 287°
2026-05-07 14:29 48.84882 12.38501 34020 ft 438 kts 287°
2026-05-07 14:29 48.86880 12.29750 34019 ft 438 kts 287°
2026-05-07 14:30 48.88987 12.21063 34018 ft 440 kts 294°
2026-05-07 14:30 48.91759 12.12756 34019 ft 441 kts 295°
2026-05-07 14:31 48.94525 12.04433 34021 ft 441 kts 295°
2026-05-07 14:31 48.97295 11.96091 34023 ft 441 kts 295°
2026-05-07 14:32 49.00042 11.87793 34026 ft 442 kts 295°
2026-05-07 14:32 49.02794 11.79430 34026 ft 442 kts 295°
2026-05-07 14:33 49.05552 11.71056 34021 ft 442 kts 295°
2026-05-07 14:33 49.08303 11.62677 34026 ft 442 kts 295°
2026-05-07 14:34 49.11040 11.54270 34029 ft 442 kts 295°
2026-05-07 14:34 49.13773 11.45857 34027 ft 442 kts 295°
2026-05-07 14:35 49.16506 11.37446 34026 ft 442 kts 295°
2026-05-07 14:35 49.19233 11.29030 34032 ft 442 kts 295°
2026-05-07 14:36 49.22326 11.20921 34034 ft 443 kts 307°
2026-05-07 14:36 49.26529 11.13981 34040 ft 444 kts 312°
2026-05-07 14:37 49.30787 11.07117 34046 ft 445 kts 312°
2026-05-07 14:37 49.37153 10.96774 34047 ft 444 kts 312°
2026-05-07 14:38 49.41940 10.90757 34047 ft 446 kts 323°
2026-05-07 14:38 49.47015 10.85353 34045 ft 447 kts 323°
2026-05-07 14:39 49.51569 10.78968 34039 ft 443 kts 307°
2026-05-07 14:39 49.54861 10.70989 34035 ft 442 kts 299°
2026-05-07 14:40 49.57992 10.62849 34033 ft 442 kts 300°
2026-05-07 14:40 49.61123 10.54701 34033 ft 442 kts 300°
2026-05-07 14:41 49.64240 10.46535 34030 ft 442 kts 300°
2026-05-07 14:41 49.67381 10.38369 34034 ft 442 kts 300°
2026-05-07 14:42 49.70586 10.30263 34034 ft 442 kts 301°
2026-05-07 14:42 49.73779 10.22220 34026 ft 442 kts 301°
2026-05-07 14:43 49.76957 10.14073 34034 ft 442 kts 297°
2026-05-07 14:43 49.78979 10.05139 34029 ft 441 kts 279°
2026-05-07 14:44 49.79707 9.95721 34029 ft 441 kts 276°
2026-05-07 14:44 49.80383 9.86289 34031 ft 441 kts 276°
2026-05-07 14:45 49.81052 9.76846 34035 ft 441 kts 276°
2026-05-07 14:45 49.81718 9.67395 34031 ft 441 kts 276°
2026-05-07 14:46 49.82482 9.57968 34035 ft 441 kts 282°
2026-05-07 14:46 49.83972 9.48757 34039 ft 441 kts 284°
2026-05-07 14:47 49.85468 9.39543 34041 ft 441 kts 284°
2026-05-07 14:47 49.87026 9.30417 34042 ft 441 kts 287°
2026-05-07 14:48 49.88908 9.21379 34040 ft 441 kts 289°
2026-05-07 14:48 49.90882 9.12372 34045 ft 441 kts 288°
2026-05-07 14:49 49.92275 9.03467 34042 ft 440 kts 275°
2026-05-07 14:49 49.92304 8.93965 34045 ft 441 kts 270°
2026-05-07 14:50 49.91784 8.84509 34041 ft 441 kts 258°
2026-05-07 14:50 49.90491 8.75199 34034 ft 441 kts 258°
2026-05-07 14:51 49.89197 8.65959 34037 ft 441 kts 258°
2026-05-07 14:51 49.88092 8.58173 34038 ft 441 kts 258°
2026-05-07 14:52 49.87147 8.47259 34037 ft 440 kts 272°